When you browse on this site, cookies collect data to enhance your experience and personalize the content and advertising you see.
Visit our Privacy Policy to learn more. By continuing to use the site, you agree to this use of cookies and data.
  • In United Kingdom
  • List of Countries
  • For 7 days
  • Water Temperature
  • Weather Map
  • Weather Widgets
  • user-avatar
    Login

    Hourly Weather Tamworth

    Today, 5 June, Friday

    Time Temperature Precipitation Wind Pressure Humidity
    00:00 +8°C° 0.1 mm 4 mps 741 mmHg 89%
    01:00 +7°C° 0 mm 5 mps 741 mmHg 89%
    02:00 +7°C° 0 mm 5 mps 740 mmHg 90%
    03:00 +5°C° 0 mm 6 mps 740 mmHg 90%
    04:00 +7°C° 0.1 mm 6 mps 740 mmHg 89%
    05:00 +7°C° 0.1 mm 6 mps 740 mmHg 87%
    06:00 +8°C° 0.1 mm 6 mps 740 mmHg 86%
    07:00 +8°C° 0.5 mm 6 mps 740 mmHg 86%
    08:00 +8°C° 0.5 mm 5 mps 740 mmHg 86%
    09:00 +8°C° 0.5 mm 5 mps 740 mmHg 85%
    10:00 +9°C° 0.4 mm 6 mps 740 mmHg 76%
    11:00 +10°C° 0.4 mm 7 mps 740 mmHg 68%
    12:00 +12°C° 0.4 mm 8 mps 740 mmHg 59%
    13:00 +12°C° 0.1 mm 9 mps 740 mmHg 56%
    14:00 +12°C° 0.1 mm 9 mps 740 mmHg 52%
    15:00 +13°C° 0.1 mm 9 mps 740 mmHg 49%
    16:00 +12°C° 0 mm 9 mps 740 mmHg 52%
    17:00 +11°C° 0 mm 8 mps 740 mmHg 55%
    18:00 +10°C° 0 mm 8 mps 740 mmHg 58%
    19:00 +9°C° 0 mm 7 mps 740 mmHg 61%
    20:00 +8°C° 0 mm 7 mps 741 mmHg 64%
    21:00 +5°C° 0 mm 6 mps 741 mmHg 68%
    22:00 +5°C° 0 mm 6 mps 741 mmHg 69%
    23:00 +4°C° 0 mm 7 mps 741 mmHg 71%

    Tomorrow, 6 June, Saturday

    Time Temperature Precipitation Wind Pressure Humidity
    00:00 +4°C° 0 mm 7 mps 740 mmHg 72%
    01:00 +4°C° 0 mm 7 mps 740 mmHg 73%
    02:00 +4°C° 0 mm 8 mps 740 mmHg 74%
    03:00 +4°C° 0 mm 8 mps 739 mmHg 75%
    04:00 +5°C° 0.3 mm 8 mps 739 mmHg 78%
    05:00 +5°C° 0.3 mm 9 mps 738 mmHg 82%
    06:00 +6°C° 0.3 mm 9 mps 738 mmHg 85%
    07:00 +6°C° 0.7 mm 9 mps 738 mmHg 87%
    08:00 +7°C° 0.7 mm 8 mps 738 mmHg 89%
    09:00 +9°C° 0.7 mm 7 mps 738 mmHg 90%
    10:00 +10°C° 0.4 mm 7 mps 738 mmHg 83%
    11:00 +12°C° 0.4 mm 7 mps 738 mmHg 75%
    12:00 +14°C° 0.4 mm 7 mps 739 mmHg 68%
    13:00 +15°C° 0.5 mm 7 mps 739 mmHg 68%
    14:00 +15°C° 0.5 mm 7 mps 740 mmHg 68%
    15:00 +15°C° 0.5 mm 7 mps 740 mmHg 67%
    16:00 +14°C° 0.5 mm 6 mps 741 mmHg 71%
    17:00 +14°C° 0.5 mm 6 mps 741 mmHg 74%
    18:00 +13°C° 0.5 mm 5 mps 742 mmHg 78%
    19:00 +12°C° 0.1 mm 4 mps 743 mmHg 80%
    20:00 +11°C° 0.1 mm 4 mps 743 mmHg 83%
    21:00 +10°C° 0.1 mm 3 mps 744 mmHg 86%
    22:00 +9°C° 0 mm 3 mps 744 mmHg 88%
    23:00 +9°C° 0 mm 3 mps 745 mmHg 91%

    Day after tomorrow, 7 June, Sunday

    Time Temperature Precipitation Wind Pressure Humidity
    00:00 +8°C° 0 mm 3 mps 745 mmHg 93%
    01:00 +8°C° 0 mm 3 mps 745 mmHg 94%
    02:00 +8°C° 0 mm 3 mps 746 mmHg 95%
    03:00 +8°C° 0 mm 3 mps 746 mmHg 95%
    04:00 +9°C° 0 mm 3 mps 746 mmHg 94%
    05:00 +9°C° 0 mm 3 mps 746 mmHg 92%
    06:00 +10°C° 0 mm 3 mps 747 mmHg 91%
    07:00 +11°C° 0.1 mm 3 mps 747 mmHg 90%
    08:00 +12°C° 0.1 mm 3 mps 748 mmHg 88%
    09:00 +12°C° 0.1 mm 3 mps 748 mmHg 87%
    10:00 +13°C° 0.2 mm 4 mps 748 mmHg 84%
    11:00 +14°C° 0.2 mm 4 mps 749 mmHg 80%
    12:00 +14°C° 0.2 mm 4 mps 749 mmHg 76%
    13:00 +14°C° 0.1 mm 4 mps 749 mmHg 76%
    14:00 +14°C° 0.1 mm 5 mps 750 mmHg 75%
    15:00 +14°C° 0.1 mm 5 mps 750 mmHg 75%
    16:00 +14°C° 0.1 mm 5 mps 751 mmHg 75%
    17:00 +13°C° 0.1 mm 5 mps 751 mmHg 75%
    18:00 +13°C° 0.1 mm 5 mps 752 mmHg 76%
    19:00 +12°C° 0 mm 4 mps 752 mmHg 79%
    20:00 +11°C° 0 mm 3 mps 753 mmHg 82%
    21:00 +9°C° 0 mm 3 mps 754 mmHg 85%
    22:00 +9°C° 0 mm 2 mps 754 mmHg 85%
    23:00 +8°C° 0 mm 2 mps 754 mmHg 85%

    8 June, Monday

    Time Temperature Precipitation Wind Pressure Humidity
    00:00 +8°C° 0 mm 2 mps 754 mmHg 85%
    01:00 +8°C° 0 mm 2 mps 755 mmHg 83%
    02:00 +8°C° 0 mm 2 mps 755 mmHg 82%
    03:00 +8°C° 0 mm 2 mps 755 mmHg 80%
    04:00 +8°C° 0 mm 2 mps 755 mmHg 78%
    05:00 +8°C° 0 mm 2 mps 756 mmHg 77%
    06:00 +8°C° 0 mm 3 mps 756 mmHg 76%
    07:00 +9°C° 0 mm 3 mps 756 mmHg 72%
    08:00 +10°C° 0 mm 3 mps 756 mmHg 68%
    09:00 +11°C° 0 mm 3 mps 757 mmHg 64%
    10:00 +12°C° 0 mm 3 mps 757 mmHg 62%
    11:00 +13°C° 0 mm 3 mps 757 mmHg 59%
    12:00 +14°C° 0 mm 3 mps 757 mmHg 57%
    13:00 +14°C° 0 mm 3 mps 757 mmHg 57%
    14:00 +14°C° 0 mm 3 mps 757 mmHg 58%
    15:00 +14°C° 0 mm 3 mps 757 mmHg 58%
    16:00 +14°C° 0 mm 3 mps 757 mmHg 60%
    17:00 +13°C° 0 mm 3 mps 757 mmHg 63%
    18:00 +13°C° 0 mm 3 mps 758 mmHg 65%
    19:00 +11°C° 0 mm 3 mps 758 mmHg 70%
    20:00 +10°C° 0 mm 3 mps 758 mmHg 75%
    21:00 +8°C° 0 mm 2 mps 759 mmHg 80%
    22:00 +7°C° 0 mm 2 mps 759 mmHg 82%
    23:00 +7°C° 0 mm 2 mps 759 mmHg 84%

    9 June, Tuesday

    Time Temperature Precipitation Wind Pressure Humidity
    00:00 +6°C° 0 mm 2 mps 759 mmHg 86%
    01:00 +7°C° 0 mm 1 mps 759 mmHg 84%
    02:00 +7°C° 0 mm 1 mps 759 mmHg 83%
    03:00 +7°C° 0 mm 1 mps 759 mmHg 82%
    04:00 +7°C° 0 mm 1 mps 759 mmHg 80%
    05:00 +8°C° 0 mm 1 mps 759 mmHg 78%
    06:00 +8°C° 0 mm 2 mps 760 mmHg 77%
    07:00 +9°C° 0 mm 2 mps 760 mmHg 71%
    08:00 +10°C° 0 mm 2 mps 760 mmHg 64%
    09:00 +13°C° 0 mm 2 mps 760 mmHg 58%
    10:00 +13°C° 0 mm 2 mps 760 mmHg 57%
    11:00 +14°C° 0 mm 2 mps 760 mmHg 56%
    12:00 +14°C° 0 mm 2 mps 760 mmHg 55%
    13:00 +15°C° 0 mm 2 mps 760 mmHg 55%
    14:00 +15°C° 0 mm 2 mps 760 mmHg 54%
    15:00 +16°C° 0 mm 2 mps 760 mmHg 53%
    16:00 +15°C° 0 mm 2 mps 760 mmHg 56%
    17:00 +15°C° 0 mm 2 mps 760 mmHg 59%
    18:00 +15°C° 0 mm 2 mps 760 mmHg 62%
    19:00 +13°C° 0 mm 2 mps 760 mmHg 67%
    20:00 +12°C° 0 mm 2 mps 761 mmHg 72%
    21:00 +10°C° 0 mm 2 mps 761 mmHg 77%
    22:00 +9°C° 0 mm 2 mps 761 mmHg 80%
    23:00 +9°C° 0 mm 1 mps 761 mmHg 83%

    10 June, Wednesday

    Time Temperature Precipitation Wind Pressure Humidity
    00:00 +8°C° 0 mm 1 mps 761 mmHg 86%
    01:00 +8°C° 0 mm 1 mps 761 mmHg 86%
    02:00 +7°C° 0 mm 0 mps 761 mmHg 86%
    03:00 +6°C° 0 mm 0 mps 761 mmHg 85%
    04:00 +7°C° 0 mm 0 mps 762 mmHg 84%
    05:00 +8°C° 0 mm 0 mps 762 mmHg 82%
    06:00 +9°C° 0 mm 0 mps 762 mmHg 80%
    07:00 +11°C° 0 mm 0 mps 762 mmHg 74%
    08:00 +13°C° 0 mm 0 mps 762 mmHg 68%
    09:00 +16°C° 0 mm 1 mps 762 mmHg 62%
    10:00 +16°C° 0 mm 1 mps 762 mmHg 60%
    11:00 +18°C° 0 mm 1 mps 762 mmHg 58%
    12:00 +18°C° 0 mm 1 mps 762 mmHg 56%
    13:00 +18°C° 0 mm 1 mps 762 mmHg 56%
    14:00 +19°C° 0 mm 1 mps 762 mmHg 56%
    15:00 +19°C° 0 mm 1 mps 761 mmHg 56%
    16:00 +19°C° 0 mm 1 mps 761 mmHg 58%
    17:00 +19°C° 0 mm 1 mps 761 mmHg 60%
    18:00 +18°C° 0 mm 1 mps 761 mmHg 62%
    19:00 +16°C° 0 mm 1 mps 762 mmHg 68%
    20:00 +14°C° 0 mm 1 mps 762 mmHg 74%
    21:00 +12°C° 0 mm 1 mps 762 mmHg 81%
    22:00 +12°C° 0 mm 1 mps 762 mmHg 82%
    23:00 +11°C° 0 mm 1 mps 762 mmHg 83%
    Show more